Regional Weather Roundup
Issued by NWS Little Rock, AR

Home | Current Version | Previous Version | Text Only | Print | Product List | Glossary On
Versions: 1 2 3 4 5 6 7 8 9 10 11 12 13 14 15 16 17 18 19 20 21 22 23 24 25 26 27 28 29 30 31 32 33 34 35 36 37 38 39 40 41 42 43 44 45 46 47 48 49 50
000
ASUS44 KLZK 300405
RWRLZK

WEATHER ROUNDUP FOR ARKANSAS
NATIONAL WEATHER SERVICE LITTLE ROCK AR
1100 PM CDT SAT APR 29 2017

NOTE: "FAIR" INDICATES FEW OR NO CLOUDS BELOW 12,000 FEET WITH NO
SIGNIFICANT WEATHER AND/OR OBSTRUCTIONS TO VISIBILITY.

ARZ001-003-010-029-300500-
NORTHWEST ARKANSAS

CITY           SKY/WX    TMP DP  RH WIND       PRES   REMARKS
FAYETTEVILLE   CLOUDY    64  64 100 CALM      29.66F
FORT SMITH     LGT RAIN  69  65  86 E6        29.62S
HARRISON       RAIN      64  64 100 E9        29.71F FOG
BENTONVILLE    CLOUDY    64  61  88 E7        29.63F
ROGERS         LGT RAIN  63  62  97 E13       29.65F
SILOAM SPGS    CLOUDY    64  59  82 E7        29.63F
HIGHFILL       LGT RAIN  65  64  97 E12       29.65S
$$

ARZ004-005-016-300500-
NORTH CENTRAL ARKANSAS

CITY           SKY/WX    TMP DP  RH WIND       PRES   REMARKS
BATESVILLE     CLOUDY    66  63  88 E9        29.72F THUNDER
FLIPPIN        CLOUDY    64  61  88 NE6       29.74F THUNDER
MTN HOME       TSTM      64  63  96 S3        29.77R FOG
$$

ARZ040-041-300500-
WEST CENTRAL ARKANSAS

CITY           SKY/WX    TMP DP  RH WIND       PRES   REMARKS
MENA           NOT AVBL
$$

ARZ009-017-025-026-028-300500-
NORTHEAST ARKANSAS

CITY           SKY/WX    TMP DP  RH WIND       PRES   REMARKS
JONESBORO      CLOUDY    68  65  90 E8        29.79F
NEWPORT        LGT RAIN  68  66  94 E13       29.74
WALNUT RIDGE   CLOUDY    66  63  88 E9        29.81F THUNDER
BLYTHEVILLE    LGT RAIN  68  66  93 E5        29.86F
$$

ARZ022-023-033-042-044-300500-
CENTRAL ARKANSAS

CITY           SKY/WX    TMP DP  RH WIND       PRES   REMARKS
LITTLE ROCK    TSTM      70  68  93 SE16G29   29.65F FOG
N LITTLE ROCK    N/A     69  67  92 E13G26    29.65F
JACKSONVILLE   LGT RAIN  69  68  99 E9G17     29.65F
CONWAY         FOG       66  66 100 NE9G26    29.68S VSB 1/2
SEARCY         CLOUDY    70  70 100 S7        29.71F
RUSSELLVILLE   TSTM      66  65  96 SW18G33   29.73R VSB 1/2
CLINTON        TSTM      66  66 100 VRB7      29.68F
$$

ARZ036-300500-
EAST ARKANSAS

CITY           SKY/WX    TMP DP  RH WIND       PRES   REMARKS
WEST MEMPHIS   CLOUDY    72  70  93 SE14      29.80F
$$

ARZ050-053-066-070-073-300500-
SOUTHWEST ARKANSAS

CITY           SKY/WX    TMP DP  RH WIND       PRES   REMARKS
ARKADELPHIA    LGT RAIN  70  69  97 VRB5      29.64F FOG
CAMDEN         CLOUDY    68  66  94 SE9G18    29.62F
TEXARKANA      TSTM      71  71 100 S16       29.62R FOG
EL DORADO      CLOUDY    73  71  93 SE14      29.64F
DE QUEEN       LGT RAIN  68  68 100 E8        29.56S
$$

ARZ056-057-069-300500-
SOUTHEAST ARKANSAS

CITY           SKY/WX    TMP DP  RH WIND       PRES   REMARKS
PINE BLUFF     CLOUDY    72  68  87 SE20      29.68F
STUTTGART      CLOUDY    73  61  64 SE21G30   29.71F
MONTICELLO     CLOUDY    76  69  79 SE12G20   29.72F

$$





USA.gov is the U.S. government's official web portal to all federal, state and local government web resources and services.